EST,Max TemperatureF,Mean TemperatureF,Min TemperatureF,Max Dew PointF,MeanDew PointF,Min DewpointF,Max Humidity, Mean Humidity, Min Humidity, Max Sea Level PressureIn, Mean Sea Level PressureIn, Min Sea Level PressureIn, Max VisibilityMiles, Mean VisibilityMiles, Min VisibilityMiles, Max Wind SpeedMPH, Mean Wind SpeedMPH, Max Gust SpeedMPH,PrecipitationIn, CloudCover, Events, WindDirDegrees
2012-12-1,42,38,35,39,35,30,100,87,76,30.49,30.42,30.38,10,4,0,7,5,,0.00,7,Fog,83
2012-12-2,51,45,39,46,42,37,100,94,74,30.41,30.27,30.13,5,2,0,5,2,,0.02,7,Fog-Rain,100
2012-12-3,66,54,41,52,47,41,100,87,60,30.25,30.20,30.15,10,5,1,8,1,,0.00,5,Rain,257
2012-12-4,66,56,46,55,51,46,100,89,56,30.23,30.17,29.95,10,3,0,12,1,22,0.03,5,Fog-Rain,140
2012-12-5,63,50,36,51,32,19,72,54,43,30.32,30.15,29.95,10,10,10,18,11,32,0.01,4,,303
2012-12-6,41,36,30,24,21,19,76,57,46,30.40,30.32,30.25,10,10,10,9,6,,0.00,0,,46
2012-12-7,39,36,33,39,35,24,100,92,70,30.24,30.12,30.01,10,4,2,6,4,,0.37,8,Rain,100
2012-12-8,46,42,39,46,43,39,100,96,93,30.05,29.96,29.89,4,2,0,6,1,,0.05,8,Fog-Rain,263
2012-12-9,46,44,41,45,42,39,100,93,81,30.23,30.13,29.99,10,4,0,9,3,,0.42,8,Fog-Rain,79
2012-12-10,50,46,41,48,45,39,100,97,80,29.96,29.69,29.57,10,2,0,13,3,20,0.09,8,Fog-Rain,75
2012-12-11,46,38,30,40,32,24,88,71,49,30.24,29.97,29.72,10,10,9,14,9,23,0.03,4,Rain,291
2012-12-12,39,34,28,28,26,24,92,76,53,30.46,30.38,30.24,10,10,7,6,2,,0.00,1,,274
2012-12-13,45,35,25,28,24,20,92,72,37,30.50,30.43,30.35,10,8,4,5,1,,0.00,0,,250
2012-12-14,50,36,21,28,24,19,92,72,36,30.35,30.28,30.21,10,9,7,10,2,,0.00,0,,252
2012-12-15,46,37,28,35,30,25,92,74,58,30.34,30.24,30.16,10,9,7,9,2,,0.00,1,,113
2012-12-16,50,46,42,45,41,36,93,82,74,30.13,29.97,29.86,10,8,4,9,7,,0.00,8,,108
2012-12-17,46,44,42,46,44,43,100,97,93,29.87,29.78,29.57,7,2,0,12,4,,0.21,8,Fog-Rain,92
2012-12-18,52,46,37,46,40,28,100,86,56,29.79,29.59,29.52,10,5,0,20,3,28,0.01,7,Fog-Rain,282
2012-12-19,48,42,35,34,31,28,79,67,52,30.19,29.97,29.79,10,10,10,17,7,28,0.00,4,,281
2012-12-20,44,36,30,43,33,27,100,84,60,30.21,29.98,29.49,10,7,2,17,5,25,0.65,4,Rain,117
2012-12-21,51,44,37,49,35,24,94,75,59,29.46,29.34,29.26,10,8,2,23,15,32,0.69,8,Rain,265
2012-12-22,39,36,32,23,21,18,61,53,43,29.98,29.77,29.47,10,10,10,29,21,46,0.00,7,Rain,289
2012-12-23,45,36,27,23,20,18,85,59,34,30.05,29.98,29.89,10,10,10,12,6,,0.00,1,,239
2012-12-24,39,31,23,32,28,19,96,85,53,30.09,29.99,29.91,10,5,0,13,3,,0.12,5,Fog-Rain-Snow,109
2012-12-25,42,37,32,36,31,23,100,83,62,30.29,30.09,29.90,10,6,1,10,3,,0.00,7,Rain,320
2012-12-26,36,32,28,32,26,20,93,84,69,30.30,29.89,29.47,10,5,0,17,9,25,0.51,8,Fog-Rain-Snow,69
2012-12-27,36,34,33,34,28,23,93,78,60,29.99,29.68,29.46,10,8,2,24,12,34,0.17,8,Rain-Snow,306
2012-12-28,37,32,27,25,24,23,85,69,59,30.15,30.08,30.00,10,10,8,12,8,20,0.00,4,,312
2012-12-29,35,32,28,29,27,23,100,87,64,30.03,29.75,29.59,10,4,0,17,6,24,0.17,8,Fog-Snow,83
2012-12-30,35,32,28,23,20,18,67,58,50,30.29,30.10,29.81,10,10,7,25,15,39,0.00,6,Rain,295
2012-12-31,37,30,23,27,20,17,81,65,48,30.28,30.15,29.95,10,10,10,6,4,,0.00,2,,267